Year,Month,Day,Hour,Minute,Value (Times are PST for temperature in C)
2013,07,02,00,00,18.70
2013,07,02,00,01,18.70
2013,07,02,00,02,18.70
2013,07,02,00,03,18.70
2013,07,02,00,04,18.70
2013,07,02,00,05,18.60
2013,07,02,00,06,18.60
2013,07,02,00,07,18.60
2013,07,02,00,08,18.60
2013,07,02,00,09,18.60
2013,07,02,00,10,18.60
2013,07,02,00,11,18.60
2013,07,02,00,12,18.60
2013,07,02,00,13,18.60
2013,07,02,00,14,18.70
2013,07,02,00,15,18.60
2013,07,02,00,16,18.60
2013,07,02,00,17,18.60
2013,07,02,00,18,18.60
2013,07,02,00,19,18.60
2013,07,02,00,20,18.60
2013,07,02,00,21,18.60
2013,07,02,00,22,18.60
2013,07,02,00,23,18.60
2013,07,02,00,24,18.60
2013,07,02,00,25,18.50
2013,07,02,00,26,18.50
2013,07,02,00,27,18.50
2013,07,02,00,28,18.40
2013,07,02,00,29,18.40
2013,07,02,00,30,18.40
2013,07,02,00,31,18.40
2013,07,02,00,32,18.40
2013,07,02,00,33,18.40
2013,07,02,00,34,18.30
2013,07,02,00,35,18.30
2013,07,02,00,36,18.30
2013,07,02,00,37,18.30
2013,07,02,00,38,18.30
2013,07,02,00,39,18.30
2013,07,02,00,40,18.30
2013,07,02,00,41,18.30
2013,07,02,00,42,18.30
2013,07,02,00,43,18.30
2013,07,02,00,44,18.30
2013,07,02,00,45,18.30
2013,07,02,00,46,18.20
2013,07,02,00,47,18.20
2013,07,02,00,48,18.20
2013,07,02,00,49,18.20
2013,07,02,00,50,18.20
2013,07,02,00,51,18.20
2013,07,02,00,52,18.20
2013,07,02,00,53,18.20
2013,07,02,00,54,18.10
2013,07,02,00,55,18.10
2013,07,02,00,56,18.10
2013,07,02,00,57,18.10
2013,07,02,00,58,18.10
2013,07,02,00,59,18.00
2013,07,02,01,00,18.00
2013,07,02,01,01,18.00
2013,07,02,01,02,18.00
2013,07,02,01,03,17.90
2013,07,02,01,04,17.90
2013,07,02,01,05,17.90
2013,07,02,01,06,17.90
2013,07,02,01,07,17.90
2013,07,02,01,08,17.80
2013,07,02,01,09,17.80
2013,07,02,01,10,17.80
2013,07,02,01,11,17.80
2013,07,02,01,12,17.80
2013,07,02,01,13,17.80
2013,07,02,01,14,17.80
2013,07,02,01,15,17.80
2013,07,02,01,16,17.80
2013,07,02,01,17,17.80
2013,07,02,01,18,17.80
2013,07,02,01,19,17.80
2013,07,02,01,20,17.80
2013,07,02,01,21,17.80
2013,07,02,01,22,17.80
2013,07,02,01,23,17.80
2013,07,02,01,24,17.80
2013,07,02,01,25,17.80
2013,07,02,01,26,17.80
2013,07,02,01,27,17.80
2013,07,02,01,28,17.80
2013,07,02,01,29,17.80
2013,07,02,01,30,17.80
2013,07,02,01,31,17.80
2013,07,02,01,32,17.80
2013,07,02,01,33,17.80
2013,07,02,01,34,17.80
2013,07,02,01,35,17.70
2013,07,02,01,36,17.70
2013,07,02,01,37,17.70
2013,07,02,01,38,17.70
2013,07,02,01,39,17.70
2013,07,02,01,40,17.70
2013,07,02,01,41,17.70
2013,07,02,01,42,17.70
2013,07,02,01,43,17.70
2013,07,02,01,44,17.70
2013,07,02,01,45,17.80
2013,07,02,01,46,17.80
2013,07,02,01,47,17.80
2013,07,02,01,48,17.80
2013,07,02,01,49,17.80
2013,07,02,01,50,17.80
2013,07,02,01,51,17.80
2013,07,02,01,52,17.80
2013,07,02,01,53,17.80
2013,07,02,01,54,17.80
2013,07,02,01,55,17.80
2013,07,02,01,56,17.80
2013,07,02,01,57,17.80
2013,07,02,01,58,17.80
2013,07,02,01,59,17.80
2013,07,02,02,00,17.80
2013,07,02,02,01,17.80
2013,07,02,02,02,17.80
2013,07,02,02,03,17.80
2013,07,02,02,04,17.80
2013,07,02,02,05,17.80
2013,07,02,02,06,17.80
2013,07,02,02,07,17.80
2013,07,02,02,08,17.80
2013,07,02,02,09,17.80
2013,07,02,02,10,17.80
2013,07,02,02,11,17.80
2013,07,02,02,12,17.70
2013,07,02,02,13,17.70
2013,07,02,02,14,17.70
2013,07,02,02,15,17.70
2013,07,02,02,16,17.70
2013,07,02,02,17,17.60
2013,07,02,02,18,17.60
2013,07,02,02,19,17.60
2013,07,02,02,20,17.60
2013,07,02,02,21,17.60
2013,07,02,02,22,17.50
2013,07,02,02,23,17.50
2013,07,02,02,24,17.50
2013,07,02,02,25,17.50
2013,07,02,02,26,17.50
2013,07,02,02,27,17.50
2013,07,02,02,28,17.50
2013,07,02,02,29,17.40
2013,07,02,02,30,17.40
2013,07,02,02,31,17.40
2013,07,02,02,32,17.40
2013,07,02,02,33,17.40
2013,07,02,02,34,17.40
2013,07,02,02,35,17.40
2013,07,02,02,36,17.40
2013,07,02,02,37,17.40
2013,07,02,02,38,17.40
2013,07,02,02,39,17.30
2013,07,02,02,40,17.30
2013,07,02,02,41,17.30
2013,07,02,02,42,17.30
2013,07,02,02,43,17.30
2013,07,02,02,44,17.30
2013,07,02,02,45,17.30
2013,07,02,02,46,17.30
2013,07,02,02,47,17.20
2013,07,02,02,48,17.20
2013,07,02,02,49,17.20
2013,07,02,02,50,17.20
2013,07,02,02,51,17.20
2013,07,02,02,52,17.20
2013,07,02,02,53,17.20
2013,07,02,02,54,17.20
2013,07,02,02,55,17.20
2013,07,02,02,56,17.20
2013,07,02,02,57,17.20
2013,07,02,02,58,17.20
2013,07,02,02,59,17.20
2013,07,02,03,00,17.20
2013,07,02,03,01,17.20
2013,07,02,03,02,17.20
2013,07,02,03,03,17.20
2013,07,02,03,04,17.10
2013,07,02,03,05,17.10
2013,07,02,03,06,17.10
2013,07,02,03,07,17.10
2013,07,02,03,08,17.10
2013,07,02,03,09,17.10
2013,07,02,03,10,17.10
2013,07,02,03,11,17.10
2013,07,02,03,12,17.00
2013,07,02,03,13,17.00
2013,07,02,03,14,17.00
2013,07,02,03,15,17.00
2013,07,02,03,16,17.00
2013,07,02,03,17,17.00
2013,07,02,03,18,17.00
2013,07,02,03,19,17.00
2013,07,02,03,20,17.00
2013,07,02,03,21,17.00
2013,07,02,03,22,17.00
2013,07,02,03,23,16.90
2013,07,02,03,24,16.90
2013,07,02,03,25,16.90
2013,07,02,03,26,16.90
2013,07,02,03,27,16.90
2013,07,02,03,28,16.90
2013,07,02,03,29,16.80
2013,07,02,03,30,16.80
2013,07,02,03,31,16.80
2013,07,02,03,32,16.80
2013,07,02,03,33,16.80
2013,07,02,03,34,16.70
2013,07,02,03,35,16.70
2013,07,02,03,36,16.70
2013,07,02,03,37,16.70
2013,07,02,03,38,16.60
2013,07,02,03,39,16.60
2013,07,02,03,40,16.60
2013,07,02,03,41,16.60
2013,07,02,03,42,16.50
2013,07,02,03,43,16.50
2013,07,02,03,44,16.40
2013,07,02,03,45,16.40
2013,07,02,03,46,16.40
2013,07,02,03,47,16.40
2013,07,02,03,48,16.30
2013,07,02,03,49,16.30
2013,07,02,03,50,16.30
2013,07,02,03,51,16.30
2013,07,02,03,52,16.30
2013,07,02,03,53,16.30
2013,07,02,03,54,16.30
2013,07,02,03,55,16.30
2013,07,02,03,56,16.30
2013,07,02,03,57,16.20
2013,07,02,03,58,16.20
2013,07,02,03,59,16.20
2013,07,02,04,00,16.20
2013,07,02,04,01,16.20
2013,07,02,04,02,16.10
2013,07,02,04,03,16.10
2013,07,02,04,04,16.10
2013,07,02,04,05,16.10
2013,07,02,04,06,16.10
2013,07,02,04,07,16.10
2013,07,02,04,08,16.00
2013,07,02,04,09,16.00
2013,07,02,04,10,16.00
2013,07,02,04,11,15.90
2013,07,02,04,12,15.90
2013,07,02,04,13,15.90
2013,07,02,04,14,15.90
2013,07,02,04,15,15.80
2013,07,02,04,16,15.80
2013,07,02,04,17,15.80
2013,07,02,04,18,15.80
2013,07,02,04,19,15.80
2013,07,02,04,20,15.80
2013,07,02,04,21,15.70
2013,07,02,04,22,15.70
2013,07,02,04,23,15.70
2013,07,02,04,24,15.70
2013,07,02,04,25,15.70
2013,07,02,04,26,15.70
2013,07,02,04,27,15.70
2013,07,02,04,28,15.70
2013,07,02,04,29,15.70
2013,07,02,04,30,15.70
2013,07,02,04,31,15.70
2013,07,02,04,32,15.70
2013,07,02,04,33,15.60
2013,07,02,04,34,15.60
2013,07,02,04,35,15.60
2013,07,02,04,36,15.60
2013,07,02,04,37,15.60
2013,07,02,04,38,15.60
2013,07,02,04,39,15.60
2013,07,02,04,40,15.60
2013,07,02,04,41,15.60
2013,07,02,04,42,15.60
2013,07,02,04,43,15.50
2013,07,02,04,44,15.50
2013,07,02,04,45,15.50
2013,07,02,04,46,15.50
2013,07,02,04,47,15.40
2013,07,02,04,48,15.40
2013,07,02,04,49,15.40
2013,07,02,04,50,15.40
2013,07,02,04,51,15.40
2013,07,02,04,52,15.40
2013,07,02,04,53,15.30
2013,07,02,04,54,15.30
2013,07,02,04,55,15.30
2013,07,02,04,56,15.30
2013,07,02,04,57,15.30
2013,07,02,04,58,15.30
2013,07,02,04,59,15.20
2013,07,02,05,00,15.20
2013,07,02,05,01,15.20
2013,07,02,05,02,15.20
2013,07,02,05,03,15.20
2013,07,02,05,04,15.20
2013,07,02,05,05,15.20
2013,07,02,05,06,15.20
2013,07,02,05,07,15.20
2013,07,02,05,08,15.20
2013,07,02,05,09,15.10
2013,07,02,05,10,15.10
2013,07,02,05,11,15.10
2013,07,02,05,12,15.10
2013,07,02,05,13,15.10
2013,07,02,05,14,15.00
2013,07,02,05,15,15.00
2013,07,02,05,16,15.00
2013,07,02,05,17,15.00
2013,07,02,05,18,15.00
2013,07,02,05,19,15.00
2013,07,02,05,20,14.90
2013,07,02,05,21,14.90
2013,07,02,05,22,14.90
2013,07,02,05,23,14.90
2013,07,02,05,24,14.90
2013,07,02,05,25,14.90
2013,07,02,05,26,14.90
2013,07,02,05,27,14.90
2013,07,02,05,28,14.90
2013,07,02,05,29,14.90
2013,07,02,05,30,14.80
2013,07,02,05,31,14.80
2013,07,02,05,32,14.80
2013,07,02,05,33,14.80
2013,07,02,05,34,14.80
2013,07,02,05,35,14.80
2013,07,02,05,36,14.80
2013,07,02,05,37,14.80
2013,07,02,05,38,14.80
2013,07,02,05,39,14.80
2013,07,02,05,40,14.70
2013,07,02,05,41,14.70
2013,07,02,05,42,14.70
2013,07,02,05,43,14.70
2013,07,02,05,44,14.70
2013,07,02,05,45,14.70
2013,07,02,05,46,14.70
2013,07,02,05,47,14.70
2013,07,02,05,48,14.70
2013,07,02,05,49,14.70
2013,07,02,05,50,14.70
2013,07,02,05,51,14.70
2013,07,02,05,52,14.70
2013,07,02,05,53,14.70
2013,07,02,05,54,14.70
2013,07,02,05,55,14.70
2013,07,02,05,56,14.70
2013,07,02,05,57,14.70
2013,07,02,05,58,14.70
2013,07,02,05,59,14.70
2013,07,02,06,00,14.70
2013,07,02,06,01,14.70
2013,07,02,06,02,14.70
2013,07,02,06,03,14.70
2013,07,02,06,04,14.70
2013,07,02,06,05,14.80
2013,07,02,06,06,14.80
2013,07,02,06,07,14.80
2013,07,02,06,08,14.80
2013,07,02,06,09,14.80
2013,07,02,06,10,14.80
2013,07,02,06,11,14.80
2013,07,02,06,12,14.90
2013,07,02,06,13,14.90
2013,07,02,06,14,14.90
2013,07,02,06,15,14.90
2013,07,02,06,16,14.90
2013,07,02,06,17,15.00
2013,07,02,06,18,15.00
2013,07,02,06,19,15.00
2013,07,02,06,20,15.10
2013,07,02,06,21,15.10
2013,07,02,06,22,15.10
2013,07,02,06,23,15.10
2013,07,02,06,24,15.20
2013,07,02,06,25,15.20
2013,07,02,06,26,15.20
2013,07,02,06,27,15.20
2013,07,02,06,28,15.20
2013,07,02,06,29,15.20
2013,07,02,06,30,15.30
2013,07,02,06,31,15.30
2013,07,02,06,32,15.30
2013,07,02,06,33,15.30
2013,07,02,06,34,15.30
2013,07,02,06,35,15.30
2013,07,02,06,36,15.30
2013,07,02,06,37,15.40
2013,07,02,06,38,15.40
2013,07,02,06,39,15.40
2013,07,02,06,40,15.40
2013,07,02,06,41,15.50
2013,07,02,06,42,15.50
2013,07,02,06,43,15.50
2013,07,02,06,44,15.60
2013,07,02,06,45,15.60
2013,07,02,06,46,15.60
2013,07,02,06,47,15.70
2013,07,02,06,48,15.70
2013,07,02,06,49,15.70
2013,07,02,06,50,15.80
2013,07,02,06,51,15.80
2013,07,02,06,52,15.80
2013,07,02,06,53,15.90
2013,07,02,06,54,15.90
2013,07,02,06,55,15.90
2013,07,02,06,56,16.00
2013,07,02,06,57,16.00
2013,07,02,06,58,16.10
2013,07,02,06,59,16.20
2013,07,02,07,00,16.30
2013,07,02,07,01,16.40
2013,07,02,07,02,16.50
2013,07,02,07,03,16.60
2013,07,02,07,04,16.80
2013,07,02,07,05,16.90
2013,07,02,07,06,17.00
2013,07,02,07,07,17.10
2013,07,02,07,08,17.20
2013,07,02,07,09,17.30
2013,07,02,07,10,17.40
2013,07,02,07,11,17.40
2013,07,02,07,12,17.50
2013,07,02,07,13,17.50
2013,07,02,07,14,17.50
2013,07,02,07,15,17.60
2013,07,02,07,16,17.60
2013,07,02,07,17,17.60
2013,07,02,07,18,17.60
2013,07,02,07,19,17.60
2013,07,02,07,20,17.60
2013,07,02,07,21,17.70
2013,07,02,07,22,17.70
2013,07,02,07,23,17.80
2013,07,02,07,24,17.80
2013,07,02,07,25,17.80
2013,07,02,07,26,17.80
2013,07,02,07,27,17.90
2013,07,02,07,28,17.90
2013,07,02,07,29,18.00
2013,07,02,07,30,18.00
2013,07,02,07,31,18.10
2013,07,02,07,32,18.10
2013,07,02,07,33,18.20
2013,07,02,07,34,18.20
2013,07,02,07,35,18.20
2013,07,02,07,36,18.30
2013,07,02,07,37,18.30
2013,07,02,07,38,18.40
2013,07,02,07,39,18.40
2013,07,02,07,40,18.50
2013,07,02,07,41,18.50
2013,07,02,07,42,18.60
2013,07,02,07,43,18.60
2013,07,02,07,44,18.60
2013,07,02,07,45,18.70
2013,07,02,07,46,18.70
2013,07,02,07,47,18.70
2013,07,02,07,48,18.70
2013,07,02,07,49,18.70
2013,07,02,07,50,18.80
2013,07,02,07,51,18.80
2013,07,02,07,52,18.90
2013,07,02,07,53,18.90
2013,07,02,07,54,19.00
2013,07,02,07,55,19.10
2013,07,02,07,56,19.20
2013,07,02,07,57,19.20
2013,07,02,07,58,19.20
2013,07,02,07,59,19.20
2013,07,02,08,00,19.10
2013,07,02,08,01,19.10
2013,07,02,08,02,19.10
2013,07,02,08,03,19.20
2013,07,02,08,04,19.20
2013,07,02,08,05,19.20
2013,07,02,08,06,19.20
2013,07,02,08,07,19.20
2013,07,02,08,08,19.20
2013,07,02,08,09,19.20
2013,07,02,08,10,19.20
2013,07,02,08,11,19.10
2013,07,02,08,12,19.10
2013,07,02,08,13,19.10
2013,07,02,08,14,19.10
2013,07,02,08,15,19.20
2013,07,02,08,16,19.10
2013,07,02,08,17,19.10
2013,07,02,08,18,19.00
2013,07,02,08,19,19.10
2013,07,02,08,20,19.10
2013,07,02,08,21,19.00
2013,07,02,08,22,19.00
2013,07,02,08,23,18.90
2013,07,02,08,24,18.90
2013,07,02,08,25,18.90
2013,07,02,08,26,19.00
2013,07,02,08,27,19.10
2013,07,02,08,28,19.10
2013,07,02,08,29,19.20
2013,07,02,08,30,19.30
2013,07,02,08,31,19.30
2013,07,02,08,32,19.30
2013,07,02,08,33,19.40
2013,07,02,08,34,19.30
2013,07,02,08,35,19.30
2013,07,02,08,36,19.20
2013,07,02,08,37,19.20
2013,07,02,08,38,19.20
2013,07,02,08,39,19.30
2013,07,02,08,40,19.30
2013,07,02,08,41,19.30
2013,07,02,08,42,19.40
2013,07,02,08,43,19.40
2013,07,02,08,44,19.50
2013,07,02,08,45,19.60
2013,07,02,08,46,19.70
2013,07,02,08,47,19.70
2013,07,02,08,48,19.70
2013,07,02,08,49,19.70
2013,07,02,08,50,19.70
2013,07,02,08,51,19.70
2013,07,02,08,52,19.80
2013,07,02,08,53,19.80
2013,07,02,08,54,19.70
2013,07,02,08,55,19.70
2013,07,02,08,56,19.60
2013,07,02,08,57,19.50
2013,07,02,08,58,19.50
2013,07,02,08,59,19.50
2013,07,02,09,00,19.50
2013,07,02,09,01,19.50
2013,07,02,09,02,19.50
2013,07,02,09,03,19.60
2013,07,02,09,04,19.60
2013,07,02,09,05,19.70
2013,07,02,09,06,19.70
2013,07,02,09,07,19.70
2013,07,02,09,08,19.70
2013,07,02,09,09,19.70
2013,07,02,09,10,19.70
2013,07,02,09,11,19.70
2013,07,02,09,12,19.70
2013,07,02,09,13,19.70
2013,07,02,09,14,19.70
2013,07,02,09,15,19.70
2013,07,02,09,16,19.80
2013,07,02,09,17,20.00
2013,07,02,09,18,20.10
2013,07,02,09,19,20.20
2013,07,02,09,20,20.30
2013,07,02,09,21,20.40
2013,07,02,09,22,20.50
2013,07,02,09,23,20.60
2013,07,02,09,24,20.70
2013,07,02,09,25,20.70
2013,07,02,09,26,20.80
2013,07,02,09,27,20.80
2013,07,02,09,28,20.70
2013,07,02,09,29,20.60
2013,07,02,09,30,20.40
2013,07,02,09,31,20.20
2013,07,02,09,32,20.10
2013,07,02,09,33,20.00
2013,07,02,09,34,19.90
2013,07,02,09,35,19.90
2013,07,02,09,36,19.90
2013,07,02,09,37,19.90
2013,07,02,09,38,19.90
2013,07,02,09,39,20.00
2013,07,02,09,40,19.90
2013,07,02,09,41,19.90
2013,07,02,09,42,19.90
2013,07,02,09,43,19.80
2013,07,02,09,44,19.80
2013,07,02,09,45,19.70
2013,07,02,09,46,19.70
2013,07,02,09,47,19.60
2013,07,02,09,48,19.60
2013,07,02,09,49,19.50
2013,07,02,09,50,19.40
2013,07,02,09,51,19.40
2013,07,02,09,52,19.50
2013,07,02,09,53,19.50
2013,07,02,09,54,19.60
2013,07,02,09,55,19.50
2013,07,02,09,56,19.60
2013,07,02,09,57,19.60
2013,07,02,09,58,19.60
2013,07,02,09,59,19.60
2013,07,02,10,00,19.60
2013,07,02,10,01,19.60
2013,07,02,10,02,19.60
2013,07,02,10,03,19.60
2013,07,02,10,04,19.60
2013,07,02,10,05,19.60
2013,07,02,10,06,19.60
2013,07,02,10,07,19.70
2013,07,02,10,08,19.70
2013,07,02,10,09,19.80
2013,07,02,10,10,19.80
2013,07,02,10,11,19.70
2013,07,02,10,12,19.60
2013,07,02,10,13,19.50
2013,07,02,10,14,19.50
2013,07,02,10,15,19.50
2013,07,02,10,16,19.50
2013,07,02,10,17,19.60
2013,07,02,10,18,19.60
2013,07,02,10,19,19.70
2013,07,02,10,20,19.70
2013,07,02,10,21,19.80
2013,07,02,10,22,19.90
2013,07,02,10,23,20.00
2013,07,02,10,24,20.10
2013,07,02,10,25,20.10
2013,07,02,10,26,20.10
2013,07,02,10,27,20.00
2013,07,02,10,28,19.80
2013,07,02,10,29,19.70
2013,07,02,10,30,19.70
2013,07,02,10,31,19.70
2013,07,02,10,32,19.60
2013,07,02,10,33,19.70
2013,07,02,10,34,19.70
2013,07,02,10,35,19.70
2013,07,02,10,36,19.70
2013,07,02,10,37,19.70
2013,07,02,10,38,19.70
2013,07,02,10,39,19.70
2013,07,02,10,40,19.80
2013,07,02,10,41,19.80
2013,07,02,10,42,19.80
2013,07,02,10,43,19.80
2013,07,02,10,44,19.80
2013,07,02,10,45,19.80
2013,07,02,10,46,19.80
2013,07,02,10,47,19.80
2013,07,02,10,48,19.80
2013,07,02,10,49,19.90
2013,07,02,10,50,19.90
2013,07,02,10,51,20.00
2013,07,02,10,52,20.20
2013,07,02,10,53,20.30
2013,07,02,10,54,20.50
2013,07,02,10,55,20.60
2013,07,02,10,56,20.70
2013,07,02,10,57,20.60
2013,07,02,10,58,20.60
2013,07,02,10,59,20.50
2013,07,02,11,00,20.50
2013,07,02,11,01,20.50
2013,07,02,11,02,20.50
2013,07,02,11,03,20.50
2013,07,02,11,04,20.50
2013,07,02,11,05,20.60
2013,07,02,11,06,20.70
2013,07,02,11,07,20.90
2013,07,02,11,08,21.00
2013,07,02,11,09,21.20
2013,07,02,11,10,21.30
2013,07,02,11,11,21.20
2013,07,02,11,12,21.20
2013,07,02,11,13,21.20
2013,07,02,11,14,21.20
2013,07,02,11,15,21.20
2013,07,02,11,16,21.20
2013,07,02,11,17,21.20
2013,07,02,11,18,21.10
2013,07,02,11,19,21.10
2013,07,02,11,20,20.90
2013,07,02,11,21,20.80
2013,07,02,11,22,20.70
2013,07,02,11,23,20.70
2013,07,02,11,24,20.80
2013,07,02,11,25,20.90
2013,07,02,11,26,21.00
2013,07,02,11,27,21.10
2013,07,02,11,28,21.30
2013,07,02,11,29,21.30
2013,07,02,11,30,21.40
2013,07,02,11,31,21.50
2013,07,02,11,32,21.60
2013,07,02,11,33,21.60
2013,07,02,11,34,21.60
2013,07,02,11,35,21.60
2013,07,02,11,36,21.60
2013,07,02,11,37,21.60
2013,07,02,11,38,21.50
2013,07,02,11,39,21.50
2013,07,02,11,40,21.40
2013,07,02,11,41,21.30
2013,07,02,11,42,21.30
2013,07,02,11,43,21.20
2013,07,02,11,44,21.20
2013,07,02,11,45,21.20
2013,07,02,11,46,21.10
2013,07,02,11,47,21.10
2013,07,02,11,48,21.10
2013,07,02,11,49,21.10
2013,07,02,11,50,21.10
2013,07,02,11,51,21.10
2013,07,02,11,52,21.10
2013,07,02,11,53,21.10
2013,07,02,11,54,21.10
2013,07,02,11,55,21.20
2013,07,02,11,56,21.20
2013,07,02,11,57,21.30
2013,07,02,11,58,21.50
2013,07,02,11,59,21.50
2013,07,02,12,00,21.70
2013,07,02,12,01,21.70
2013,07,02,12,02,21.80
2013,07,02,12,03,22.00
2013,07,02,12,04,22.00
2013,07,02,12,05,22.00
2013,07,02,12,06,21.90
2013,07,02,12,07,21.90
2013,07,02,12,08,21.90
2013,07,02,12,09,21.90
2013,07,02,12,10,21.90
2013,07,02,12,11,22.00
2013,07,02,12,12,21.90
2013,07,02,12,13,21.90
2013,07,02,12,14,21.90
2013,07,02,12,15,21.90
2013,07,02,12,16,21.90
2013,07,02,12,17,22.00
2013,07,02,12,18,22.00
2013,07,02,12,19,22.10
2013,07,02,12,20,22.10
2013,07,02,12,21,22.20
2013,07,02,12,22,22.30
2013,07,02,12,23,22.40
2013,07,02,12,24,22.40
2013,07,02,12,25,22.50
2013,07,02,12,26,22.60
2013,07,02,12,27,22.70
2013,07,02,12,28,22.80
2013,07,02,12,29,22.80
2013,07,02,12,30,22.80
2013,07,02,12,31,22.90
2013,07,02,12,32,23.00
2013,07,02,12,33,23.00
2013,07,02,12,34,23.00
2013,07,02,12,35,23.00
2013,07,02,12,36,22.90
2013,07,02,12,37,22.80
2013,07,02,12,38,22.70
2013,07,02,12,39,22.60
2013,07,02,12,40,22.50
2013,07,02,12,41,22.50
2013,07,02,12,42,22.60
2013,07,02,12,43,22.60
2013,07,02,12,44,22.60
2013,07,02,12,45,22.60
2013,07,02,12,46,22.60
2013,07,02,12,47,22.60
2013,07,02,12,48,22.60
2013,07,02,12,49,22.50
2013,07,02,12,50,22.50
2013,07,02,12,51,22.40
2013,07,02,12,52,22.40
2013,07,02,12,53,22.40
2013,07,02,12,54,22.40
2013,07,02,12,55,22.40
2013,07,02,12,56,22.40
2013,07,02,12,57,22.40
2013,07,02,12,58,22.40
2013,07,02,12,59,22.30
2013,07,02,13,00,22.30
2013,07,02,13,01,22.30
2013,07,02,13,02,22.30
2013,07,02,13,03,22.30
2013,07,02,13,04,22.30
2013,07,02,13,05,22.30
2013,07,02,13,06,22.40
2013,07,02,13,07,22.40
2013,07,02,13,08,22.50
2013,07,02,13,09,22.60
2013,07,02,13,10,22.70
2013,07,02,13,11,22.80
2013,07,02,13,12,22.80
2013,07,02,13,13,22.90
2013,07,02,13,14,23.00
2013,07,02,13,15,23.00
2013,07,02,13,16,23.10
2013,07,02,13,17,23.20
2013,07,02,13,18,23.20
2013,07,02,13,19,23.20
2013,07,02,13,20,23.20
2013,07,02,13,21,23.20
2013,07,02,13,22,23.20
2013,07,02,13,23,23.30
2013,07,02,13,24,23.30
2013,07,02,13,25,23.30
2013,07,02,13,26,23.40
2013,07,02,13,27,23.40
2013,07,02,13,28,23.50
2013,07,02,13,29,23.50
2013,07,02,13,30,23.60
2013,07,02,13,31,23.60
2013,07,02,13,32,23.60
2013,07,02,13,33,23.60
2013,07,02,13,34,23.60
2013,07,02,13,35,23.70
2013,07,02,13,36,23.60
2013,07,02,13,37,23.60
2013,07,02,13,38,23.60
2013,07,02,13,39,23.60
2013,07,02,13,40,23.60
2013,07,02,13,41,23.60
2013,07,02,13,42,23.60
2013,07,02,13,43,23.70
2013,07,02,13,44,23.70
2013,07,02,13,45,23.70
2013,07,02,13,46,23.70
2013,07,02,13,47,23.80
2013,07,02,13,48,23.80
2013,07,02,13,49,23.80
2013,07,02,13,50,23.80
2013,07,02,13,51,23.80
2013,07,02,13,52,23.90
2013,07,02,13,53,24.00
2013,07,02,13,54,24.10
2013,07,02,13,55,24.10
2013,07,02,13,56,24.10
2013,07,02,13,57,24.20
2013,07,02,13,58,24.20
2013,07,02,13,59,24.20
2013,07,02,14,00,24.20
2013,07,02,14,01,24.20
2013,07,02,14,02,24.20
2013,07,02,14,03,24.20
2013,07,02,14,04,24.10
2013,07,02,14,05,24.10
2013,07,02,14,06,24.10
2013,07,02,14,07,24.00
2013,07,02,14,08,24.00
2013,07,02,14,09,23.90
2013,07,02,14,10,23.80
2013,07,02,14,11,23.80
2013,07,02,14,12,23.90
2013,07,02,14,13,23.90
2013,07,02,14,14,24.00
2013,07,02,14,15,24.00
2013,07,02,14,16,24.10
2013,07,02,14,17,24.20
2013,07,02,14,18,24.20
2013,07,02,14,19,24.30
2013,07,02,14,20,24.30
2013,07,02,14,21,24.40
2013,07,02,14,22,24.50
2013,07,02,14,23,24.50
2013,07,02,14,24,24.50
2013,07,02,14,25,24.50
2013,07,02,14,26,24.50
2013,07,02,14,27,24.50
2013,07,02,14,28,24.50
2013,07,02,14,29,24.40
2013,07,02,14,30,24.40
2013,07,02,14,31,24.40
2013,07,02,14,32,24.40
2013,07,02,14,33,24.40
2013,07,02,14,34,24.50
2013,07,02,14,35,24.60
2013,07,02,14,36,24.60
2013,07,02,14,37,24.70
2013,07,02,14,38,24.80
2013,07,02,14,39,24.80
2013,07,02,14,40,24.80
2013,07,02,14,41,24.80
2013,07,02,14,42,24.70
2013,07,02,14,43,24.70
2013,07,02,14,44,24.70
2013,07,02,14,45,24.60
2013,07,02,14,46,24.60
2013,07,02,14,47,24.60
2013,07,02,14,48,24.60
2013,07,02,14,49,24.60
2013,07,02,14,50,24.60
2013,07,02,14,51,24.60
2013,07,02,14,52,24.70
2013,07,02,14,53,24.80
2013,07,02,14,54,24.90
2013,07,02,14,55,25.10
2013,07,02,14,56,25.20
2013,07,02,14,57,25.30
2013,07,02,14,58,25.30
2013,07,02,14,59,25.30
2013,07,02,15,00,25.40
2013,07,02,15,01,25.40
2013,07,02,15,02,25.30
2013,07,02,15,03,25.30
2013,07,02,15,04,25.30
2013,07,02,15,05,25.30
2013,07,02,15,06,25.30
2013,07,02,15,07,25.30
2013,07,02,15,08,25.30
2013,07,02,15,09,25.20
2013,07,02,15,10,25.20
2013,07,02,15,11,25.20
2013,07,02,15,12,25.20
2013,07,02,15,13,25.20
2013,07,02,15,14,25.20
2013,07,02,15,15,25.10
2013,07,02,15,16,25.10
2013,07,02,15,17,25.10
2013,07,02,15,18,25.20
2013,07,02,15,19,25.30
2013,07,02,15,20,25.40
2013,07,02,15,21,25.40
2013,07,02,15,22,25.50
2013,07,02,15,23,25.60
2013,07,02,15,24,25.60
2013,07,02,15,25,25.60
2013,07,02,15,26,25.60
2013,07,02,15,27,25.60
2013,07,02,15,28,25.60
2013,07,02,15,29,25.60
2013,07,02,15,30,25.60
2013,07,02,15,31,25.60
2013,07,02,15,32,25.60
2013,07,02,15,33,25.60
2013,07,02,15,34,25.60
2013,07,02,15,35,25.60
2013,07,02,15,36,25.50
2013,07,02,15,37,25.50
2013,07,02,15,38,25.50
2013,07,02,15,39,25.50
2013,07,02,15,40,25.50
2013,07,02,15,41,25.50
2013,07,02,15,42,25.50
2013,07,02,15,43,25.60
2013,07,02,15,44,25.60
2013,07,02,15,45,25.60
2013,07,02,15,46,25.60
2013,07,02,15,47,25.50
2013,07,02,15,48,25.60
2013,07,02,15,49,25.60
2013,07,02,15,50,25.70
2013,07,02,15,51,25.70
2013,07,02,15,52,25.90
2013,07,02,15,53,25.90
2013,07,02,15,54,25.90
2013,07,02,15,55,25.80
2013,07,02,15,56,25.80
2013,07,02,15,57,25.80
2013,07,02,15,58,25.80
2013,07,02,15,59,25.90
2013,07,02,16,00,25.90
2013,07,02,16,01,25.90
2013,07,02,16,02,25.90
2013,07,02,16,03,25.90
2013,07,02,16,04,25.90
2013,07,02,16,05,25.90
2013,07,02,16,06,25.80
2013,07,02,16,07,25.80
2013,07,02,16,08,25.80
2013,07,02,16,09,25.80
2013,07,02,16,10,25.70
2013,07,02,16,11,25.70
2013,07,02,16,12,25.70
2013,07,02,16,13,25.60
2013,07,02,16,14,25.60
2013,07,02,16,15,25.60
2013,07,02,16,16,25.70
2013,07,02,16,17,25.70
2013,07,02,16,18,25.80
2013,07,02,16,19,25.80
2013,07,02,16,20,25.90
2013,07,02,16,21,26.00
2013,07,02,16,22,26.10
2013,07,02,16,23,26.20
2013,07,02,16,24,26.20
2013,07,02,16,25,26.30
2013,07,02,16,26,26.30
2013,07,02,16,27,26.30
2013,07,02,16,28,26.30
2013,07,02,16,29,26.30
2013,07,02,16,30,26.20
2013,07,02,16,31,26.20
2013,07,02,16,32,26.10
2013,07,02,16,33,26.10
2013,07,02,16,34,26.00
2013,07,02,16,35,25.90
2013,07,02,16,36,25.90
2013,07,02,16,37,25.90
2013,07,02,16,38,25.90
2013,07,02,16,39,25.90
2013,07,02,16,40,26.00
2013,07,02,16,41,26.00
2013,07,02,16,42,26.10
2013,07,02,16,43,26.10
2013,07,02,16,44,26.10
2013,07,02,16,45,26.10
2013,07,02,16,46,26.10
2013,07,02,16,47,26.10
2013,07,02,16,48,26.20
2013,07,02,16,49,26.30
2013,07,02,16,50,26.30
2013,07,02,16,51,26.30
2013,07,02,16,52,26.30
2013,07,02,16,53,26.30
2013,07,02,16,54,26.30
2013,07,02,16,55,26.30
2013,07,02,16,56,26.30
2013,07,02,16,57,26.30
2013,07,02,16,58,26.30
2013,07,02,16,59,26.20
2013,07,02,17,00,26.20
2013,07,02,17,01,26.30
2013,07,02,17,02,26.20
2013,07,02,17,03,26.10
2013,07,02,17,04,26.00
2013,07,02,17,05,26.00
2013,07,02,17,06,25.90
2013,07,02,17,07,25.90
2013,07,02,17,08,25.80
2013,07,02,17,09,25.90
2013,07,02,17,10,25.80
2013,07,02,17,11,25.70
2013,07,02,17,12,25.60
2013,07,02,17,13,25.60
2013,07,02,17,14,25.50
2013,07,02,17,15,25.40
2013,07,02,17,16,25.40
2013,07,02,17,17,25.40
2013,07,02,17,18,25.40
2013,07,02,17,19,25.50